Regional Weather Roundup
Issued by NWS Cleveland, OH

Home | Current Version | Previous Version | Graphics & Text | Print | Product List | Glossary On
Versions: 1 2 3 4 5 6 7 8 9 10 11 12 13 14 15 16 17 18 19 20 21 22 23 24 25 26 27 28 29 30 31 32 33 34 35 36 37 38 39 40 41 42 43 44 45 46 47 48 49 50
000
ASUS41 KCLE 251402
RWRCLE
OHIO REGIONAL WEATHER ROUNDUP
NATIONAL WEATHER SERVICE CLEVELAND, OH
900 AM EST THU DEC 25 2014

NOTE: "FAIR" INDICATES FEW OR NO CLOUDS BELOW 12,000 FEET WITH NO
SIGNIFICANT WEATHER AND/OR OBSTRUCTIONS TO VISIBILITY.

OHZ001>008-015>018-024>027-034-035-043-044-251500-
   NORTHWEST OHIO

CITY           SKY/WX    TMP DP  RH WIND       PRES   REMARKS
DEFIANCE       CLOUDY    37  32  82 W7        29.92R
FINDLAY        LGT RAIN  37  33  85 W13       29.91R
TOLEDO EXPRESS CLOUDY    37  32  82 W20       29.88R
TOLEDO EXEC    CLOUDY    39  31  72 W16G23    29.89R
LIMA           CLOUDY    38  32  79 SW15      29.94R
$$

OHZ009>014-019>023-028>033-038-089-251500-
   NORTHEAST OHIO

CITY           SKY/WX    TMP DP  RH WIND       PRES   REMARKS
CLE-HOPKINS    CLOUDY    38  32  79 W16G25    29.89R
CLE-LAKEFRONT  CLOUDY    40  33  76 SW22      29.86R
CUY CO. ARPT   CLOUDY    41  36  81 W16G28    29.85R
LORAIN-ELYRIA  CLOUDY    37  33  85 W18G31    29.89R
ASHTABULA      CLOUDY    38  32  79 W16G31    29.83R
AKRON-CANTON   CLOUDY    38  32  79 W15       29.88R
WOOSTER        LGT RAIN  37  33  85 W16       29.90R
MANSFIELD      CLOUDY    36  32  85 W13G24    29.90R
YOUNGSTOWN     LGT RAIN  37  32  82 W14G24    29.84R
$$

OHZ042-051>053-060>062-070>072-077>081-251500-
  SOUTHWEST OHIO

CITY           SKY/WX    TMP DP  RH WIND       PRES   REMARKS
CINC-COVINGTON CLOUDY    37  31  78 SW9       30.04R
CINC-LUNKEN    LGT RAIN  38  34  85 W9        30.07R
HAMILTON       CLOUDY    39  31  72 VRB5      30.05R
DAYTON         CLOUDY    37  30  75 W14       30.01R
WRIGHT-PAT AFB CLOUDY    36  32  87 W13       30.00R
DAYTON GENERAL CLOUDY    36  32  85 W12       30.02R
WILMINGTON     LGT RAIN  35  31  85 W15       30.01R WCI  25
$$

OHZ036-037-039>041-045>050-054>059-063>069-073>076-082>088-251500-
  CENTRAL AND SOUTHEAST OHIO

CITY           SKY/WX    TMP DP  RH WIND       PRES   REMARKS
COLUMBUS       CLOUDY    37  31  78 SW10      29.98R
OSU AIRPORT    CLOUDY    37  32  82 W15       29.97R
BOLTON FIELD   CLOUDY    37  34  87 SW12      29.99R
RICKENBACK AFB NOT AVBL
NEWARK         CLOUDY    38  33  82 W8        29.97R
MARION         CLOUDY    37  32  82 W12G22    29.94R
LANCASTER      CLOUDY    38  33  82 W14G20    30.00R
ZANESVILLE     CLOUDY    37  31  78 W20G26    29.96R
NEW PHILLY     LGT RAIN  38  33  82 W9        29.94R
$$


USA.gov is the U.S. government's official web portal to all federal, state and local government web resources and services.